Location: Toronto
(43.6672°N, 79.4170°W)
Time: 20:11:53
(UTC-04:00)

ISS - Visible Passes

Search period start: 28 August 2016 00:00
Search period end: 07 September 2016 00:00
Orbit: 402 x 406 km, 51.6° (Epoch: 29 August)

Date Brightness Start Highest point End Pass type
(mag) Time Alt. Az. Time Alt. Az. Time Alt. Az.
04 Sep -0.6 05:34:54 10° SSE 05:36:40 14° SE 05:38:26 10° E visible
05 Sep -2.8 06:17:03 10° SW 06:20:16 56° SE 06:23:30 10° ENE visible
06 Sep -1.8 05:26:02 17° S 05:27:53 30° SE 05:30:49 10° ENE visible
